Volver al catálogo

ATLAS 5 CENTAUR DEB

ActivoHEO
NORAD 43970·DEBRIS·🇺🇸 United States

Lanzado Sep 17, 2014 desde Cape Canaveral Space Force Station

Loading…

Próximos Pases (próximas 24 horas)

TLE

EnvejeciendoSource: Space-Track

Época: Sep 4, 2026, 21:20 UTC

1 43970U 14055Z   26247.88945091 -.00000158  00000-0  00000+0 0  9997
2 43970  20.6683 119.4659 4747323 210.5821 110.2093  1.90354251 55695

Sigue ATLAS 5 CENTAUR DEB en tiempo real con AllMySat

Download on the App Store